[[{"header":{"parameterUnit":"m.s-1","parameterCategory":1,"la1":30.2991,"la2":30.254,"lo1":-89.0895,"lo2":-89.0444,"dy":0.0017,"dx":0.0017,"nx":28,"ny":28,"refTime":"2024-03-02T09:00:00:Z","depth":0,"parameterNumber":2,"parameterNumberName":"U-component_of_WINDS"},"data":[0,0,0,0,0,0,0,0,0,0,0,0,0,0,0,0,0,0,0,0,0,0,0,0,0,0,0,0,0,0,0,0,0,0,0,0,0,0,0,0,0,0,0,0,0,0,0,0,0,0,0,0,0,0,0,0,0,0,-1.929,-1.929,0,-1.927,-1.927,-1.927,-1.921,-1.9208,-1.9207,-1.9206,-1.9188,-1.9189,-1.919,0,0,0,0,0,0,0,0,0,0,0,0,0,-1.9278,-1.9279,-1.929,-1.929,-1.9289,-1.927,-1.927,-1.927,-1.921,-1.9208,-1.9207,-1.9205,-1.9188,-1.9189,-1.919,0,0,0,0,0,0,0,0,0,0,0,0,0,-1.9273,-1.9279,-1.929,-1.9257,-1.9254,-1.927,-1.927,-1.9269,-1.921,-1.9208,-1.9206,-1.9204,-1.9187,-1.9189,-1.919,-1.9237,0,0,-1.9193,-1.9194,0,0,0,0,0,0,0,0,-1.9274,-1.9274,-1.9262,-1.9259,-1.9256,-1.924,-1.9259,-1.9259,-1.9211,-1.9227,-1.9206,-1.9203,-1.9207,-1.9207,-1.9207,-1.9236,-1.9235,-1.9193,-1.9194,-1.9195,-1.9195,0,0,0,0,0,0,0,-1.9274,-1.9274,-1.9282,-1.9262,-1.9258,-1.9244,-1.9241,-1.9259,-1.9229,-1.9225,-1.9221,-1.9219,-1.9205,-1.9206,-1.9206,-1.9235,-1.9193,-1.9194,-1.9195,-1.9196,-1.9301,-1.9303,0,0,0,0,0,0,-1.9279,-1.9275,-1.9283,-1.9281,-1.926,-1.9246,-1.9243,-1.9247,-1.9228,-1.9223,-1.9221,-1.9217,-1.9205,-1.9205,-1.9206,-1.926,-1.9195,-1.9196,-1.9196,-1.9299,-1.9302,-1.9304,0,0,0,0,0,0,-1.9279,-1.928,-1.9283,-1.9277,-1.9276,-1.9248,-1.9254,-1.9248,-1.9249,-1.9225,-1.9219,-1.9228,-1.9204,-1.9204,-1.9229,-1.9258,-1.9196,-1.9197,-1.9297,-1.93,-1.9303,-1.9368,0,0,0,0,0,0,-1.9279,-1.928,-1.9297,-1.9278,-1.9277,-1.9307,-1.9256,-1.9249,-1.9251,-1.9245,-1.923,-1.9225,-1.9202,-1.9228,-1.9231,-1.9259,-1.9198,-1.9294,-1.9298,-1.9302,-1.9363,-1.9373,-1.9381,0,0,0,0,0,-1.9279,-1.9317,-1.9299,-1.93,-1.9297,-1.9309,-1.9308,-1.928,-1.9253,-1.9271,-1.9255,-1.9226,-1.9255,-1.9231,-1.9233,-1.9262,-1.9292,-1.9297,-1.9302,-1.9359,-1.9371,-1.9381,0,0,0,0,0,0,-1.9342,-1.9314,-1.9293,-1.9326,-1.932,-1.9299,-1.9319,-1.9294,-1.9296,-1.929,-1.9256,-1.9253,-1.9284,-1.9275,-1.925,-1.9307,-1.9268,-1.9274,-1.9311,-1.9322,-1.9331,-1.9333,-1.9199,0,0,0,0,0,-1.9359,-1.937,-1.9345,-1.9377,-1.9375,-1.9348,-1.9352,-1.9331,-1.9323,-1.9321,-1.9307,-1.9302,-1.9309,-1.9315,-1.9321,-1.9361,-1.9358,-1.9383,-1.9392,-1.9399,-1.9405,-1.9426,-1.9437,-1.932,-1.932,-1.932,0,0,-1.9396,-1.9382,-1.9391,-1.9389,-1.9382,-1.9395,-1.9346,-1.9361,-1.9371,-1.9323,-1.9346,-1.9336,-1.9328,-1.9361,-1.9375,-1.9355,-1.9436,-1.9405,-1.9412,-1.9413,-1.9432,-1.9443,-1.9453,-1.9323,-1.9323,-1.9322,0,0,-1.947,-1.946,-1.9485,-1.9479,-1.9468,-1.945,-1.9456,-1.9438,-1.943,-1.9452,-1.9417,-1.9427,-1.9442,-1.9437,-1.9437,-1.9509,-1.9482,-1.9512,-1.956,-1.9581,-1.959,-1.9598,-1.9624,-1.9634,-1.9517,-1.9517,-1.9517,0,-1.9517,-1.9533,-1.9502,-1.9519,-1.952,-1.9476,-1.9502,-1.9498,-1.949,-1.9492,-1.947,-1.9486,-1.9478,-1.951,-1.9527,-1.9528,-1.9535,-1.9514,-1.9591,-1.9599,-1.9606,-1.963,-1.964,-1.9521,-1.9521,-1.952,-1.952,0,-1.9592,-1.9605,-1.9626,-1.9619,-1.9622,-1.9644,-1.9616,-1.9623,-1.9602,-1.9586,-1.961,-1.9598,-1.9601,-1.9607,-1.9587,-1.9636,-1.9624,-1.9597,-1.9558,-1.9621,-1.9644,-1.9653,-1.9526,-1.9525,-1.9524,-1.9523,0,0,-1.9705,-1.968,-1.9689,-1.9685,-1.967,-1.9679,-1.9699,-1.9701,-1.9708,-1.9704,-1.9721,-1.9734,-1.9708,-1.9708,-1.9687,-1.9705,-1.9764,-1.9676,-1.9675,-1.9693,-1.9818,-1.9839,-1.985,-1.9746,-1.9747,-1.9749,-1.9819,0,-1.9775,-1.9807,-1.9779,-1.9816,-1.9828,-1.9787,-1.9804,-1.9798,-1.9784,-1.9792,-1.9777,-1.9786,-1.9752,-1.9752,-1.9768,-1.9753,-1.9788,-1.9748,-1.9761,-1.9762,-1.9765,-1.9861,-1.9883,-1.995,-1.9827,-1.9829,-1.983,0,-1.9861,-1.986,-1.9899,-1.9881,-1.9885,-1.9901,-1.99,-1.9908,-1.99,-1.9889,-1.9889,-1.9863,-1.9882,-1.9843,-1.987,-1.9843,-1.9847,-1.984,-1.9842,-1.9843,-1.98,-1.9865,-1.997,-1.9981,-1.9843,-1.9842,-1.9841,0,-1.994,-1.9949,-1.9973,-1.9971,-1.9951,-1.9963,-1.9956,-1.9946,-1.9949,-1.9949,-1.995,-1.9953,-1.9955,-1.9958,-1.9933,-1.9907,-1.9963,-1.9922,-1.9955,-1.9956,-1.9969,-1.9968,-2.0077,-1.9971,-1.9971,-1.9971,-1.997,0,-2.0021,-2.0046,-2.0008,-2.0023,-2.005,-2.0018,-2.0046,-2.0035,-2.0026,-2.0038,-2.0004,-2.0016,-1.9983,-1.9993,-1.9974,-1.9999,-2.0,-1.9992,-1.9986,-1.9995,-1.9996,-1.9997,-1.9992,-1.9973,-1.9973,-1.9972,-1.9972,0,-2.0114,-2.0089,-2.0113,-2.0092,-2.0087,-2.0108,-2.0091,-2.0104,-2.0088,-2.0104,-2.0106,-2.0081,-2.0091,-2.0066,-2.0072,-2.006,-2.0096,-2.0083,-2.0098,-2.0095,-2.0129,-2.0126,-2.0242,-2.0256,-2.0141,-2.0142,-2.0143,0,-2.0167,-2.0186,-2.0167,-2.0172,-2.0166,-2.0176,-2.0178,-2.0148,-2.0152,-2.0144,-2.0159,-2.0165,-2.0168,-2.0186,-2.0168,-2.0173,-2.016,-2.0201,-2.0161,-2.0169,-2.0161,-2.0161,-2.0163,-2.0209,-2.021,-2.0212,-2.0212,0,-2.0265,-2.0252,-2.0256,-2.0257,-2.0261,-2.026,-2.0257,-2.0264,-2.0231,-2.0238,-2.0246,-2.0249,-2.0255,-2.0262,-2.0263,-2.0256,-2.0229,-2.0225,-2.0233,-2.0242,-2.025,-2.0247,-2.0121,-2.0223,-2.0222,-2.0221,-2.022,-2.022,-2.034,-2.0355,-2.0343,-2.035,-2.0344,-2.0342,-2.0353,-2.0338,-2.0345,-2.0346,-2.0328,-2.0341,-2.0332,-2.033,-2.0326,-2.0337,-2.0318,-2.033,-2.0332,-2.0336,-2.0342,-2.0248,-2.0337,-2.0336,-2.0336,-2.0336,-2.0335,0,-2.0436,-2.0427,-2.0433,-2.0429,-2.0435,-2.0408,-2.0403,-2.041,-2.0421,-2.0415,-2.0419,-2.0429,-2.0436,-2.0419,-2.0423,-2.0435,-2.0423,-2.0437,-2.0436,-2.0435,-2.0358,-2.035,-2.0447,-2.0447,-2.0447,-2.0447,-2.0447,-2.0447,-2.0487,-2.051,-2.0496,-2.0516,-2.0506,-2.0518,-2.0517,-2.0516,-2.0511,-2.0523,-2.0528,-2.0517,-2.0507,-2.051,-2.0515,-2.051,-2.0514,-2.0532,-2.0523,-2.0451,-2.0441,-2.043,-2.0423,-2.0533,-2.0533,-2.06,-2.0601,-2.0601]},{"header":{"parameterUnit":"m.s-1","parameterCategory":1,"la1":30.2991,"la2":30.254,"lo1":-89.0895,"lo2":-89.0444,"dy":0.0017,"dx":0.0017,"nx":28,"ny":28,"refTime":"2024-03-02T09:00:00:Z","depth":0,"parameterNumber":3,"parameterNumberName":"V-component_of_WINDS"},"data":[0,0,0,0,0,0,0,0,0,0,0,0,0,0,0,0,0,0,0,0,0,0,0,0,0,0,0,0,0,0,0,0,0,0,0,0,0,0,0,0,0,0,0,0,0,0,0,0,0,0,0,0,0,0,0,0,0,0,0.1472,0.1472,0,0.1499,0.1499,0.1499,0.1516,0.1516,0.1516,0.1516,0.1544,0.1544,0.1545,0,0,0,0,0,0,0,0,0,0,0,0,0,0.1436,0.1436,0.1472,0.1472,0.1472,0.1499,0.1499,0.1499,0.1516,0.1516,0.1516,0.1516,0.1543,0.1544,0.1545,0,0,0,0,0,0,0,0,0,0,0,0,0,0.1456,0.1436,0.1472,0.1484,0.1485,0.1499,0.1499,0.1499,0.1516,0.1516,0.1516,0.1516,0.1543,0.1544,0.1545,0.1549,0,0,0.1548,0.1549,0,0,0,0,0,0,0,0,0.1455,0.1457,0.1482,0.1483,0.1484,0.1504,0.1496,0.1516,0.1516,0.1504,0.1516,0.1516,0.153,0.1532,0.1537,0.155,0.1551,0.1548,0.1549,0.1549,0.1549,0,0,0,0,0,0,0,0.1453,0.1456,0.1482,0.1482,0.1484,0.1488,0.1491,0.15,0.1516,0.1505,0.1506,0.1509,0.1531,0.1536,0.1538,0.1552,0.1548,0.1549,0.155,0.155,0.157,0.157,0,0,0,0,0,0,0.145,0.1455,0.1482,0.1483,0.147,0.1489,0.1492,0.1498,0.1516,0.1519,0.1509,0.151,0.1534,0.1537,0.1539,0.1545,0.1549,0.155,0.1551,0.157,0.157,0.157,0,0,0,0,0,0,0.1449,0.1452,0.148,0.1469,0.1473,0.1489,0.1495,0.1498,0.1503,0.1519,0.1522,0.1511,0.1535,0.1538,0.1546,0.1546,0.1551,0.1551,0.157,0.157,0.157,0.1557,0,0,0,0,0,0,0.1448,0.1452,0.1453,0.1469,0.1474,0.1487,0.1495,0.1498,0.1505,0.1506,0.1522,0.1525,0.1535,0.1545,0.1547,0.1548,0.1552,0.1571,0.157,0.157,0.1558,0.1557,0.1556,0,0,0,0,0,0.1447,0.1448,0.1453,0.1456,0.1476,0.1487,0.149,0.1501,0.1505,0.1506,0.1517,0.1524,0.1546,0.1546,0.1549,0.1549,0.1571,0.157,0.157,0.1558,0.1557,0.1556,0,0,0,0,0,0,0.143,0.145,0.1456,0.1462,0.1473,0.149,0.1492,0.1499,0.1509,0.151,0.1524,0.1528,0.1535,0.1543,0.1543,0.1555,0.1559,0.156,0.1549,0.1548,0.1547,0.1545,0.1553,0,0,0,0,0,0.1428,0.1435,0.1452,0.1456,0.1461,0.1476,0.1481,0.1489,0.1501,0.1505,0.1517,0.1528,0.1537,0.1543,0.1553,0.1559,0.1563,0.1561,0.156,0.1559,0.156,0.1565,0.1564,0.157,0.157,0.157,0,0,0.1422,0.1434,0.1437,0.1453,0.1462,0.147,0.1479,0.1487,0.1493,0.1507,0.1516,0.1525,0.1538,0.1546,0.155,0.1553,0.1559,0.1559,0.1559,0.1559,0.1565,0.1564,0.1564,0.157,0.157,0.157,0,0,0.1416,0.1425,0.143,0.1439,0.1453,0.1463,0.1464,0.1481,0.1487,0.1497,0.1507,0.1515,0.1531,0.154,0.1547,0.1546,0.1554,0.1549,0.1544,0.1549,0.1548,0.1548,0.1548,0.1548,0.1549,0.1549,0.1549,0,0.1407,0.1419,0.1432,0.1439,0.1446,0.1459,0.1465,0.1473,0.149,0.1494,0.1497,0.1518,0.1528,0.1539,0.1539,0.1544,0.1546,0.1547,0.1547,0.1547,0.1547,0.1547,0.1547,0.1548,0.1548,0.1548,0.1549,0,0.1408,0.1416,0.1418,0.1434,0.1442,0.1448,0.1462,0.1469,0.1477,0.1486,0.1497,0.1509,0.1522,0.1525,0.1533,0.1538,0.1539,0.1544,0.1549,0.1545,0.1546,0.1546,0.1547,0.1548,0.1548,0.1548,0,0,0.1391,0.1415,0.1416,0.1423,0.144,0.1447,0.1455,0.1468,0.1473,0.1484,0.1491,0.1505,0.1511,0.1518,0.1527,0.1532,0.1531,0.1537,0.1537,0.1536,0.1538,0.1534,0.1534,0.1536,0.1537,0.1537,0.1537,0,0.1387,0.1401,0.1414,0.1423,0.1432,0.1445,0.1452,0.1463,0.1473,0.1482,0.1493,0.1503,0.1509,0.1514,0.1519,0.153,0.1532,0.153,0.1544,0.1544,0.154,0.1534,0.153,0.1529,0.1537,0.1538,0.1538,0,0.1385,0.1396,0.1406,0.1424,0.1428,0.1433,0.1447,0.1455,0.1469,0.1476,0.1485,0.1495,0.1504,0.1509,0.1522,0.1521,0.1527,0.1534,0.1534,0.1536,0.154,0.1536,0.153,0.153,0.1538,0.1538,0.1538,0,0.1372,0.139,0.1398,0.1405,0.1425,0.1429,0.1438,0.1452,0.1459,0.1471,0.1476,0.1489,0.1496,0.1506,0.1519,0.1521,0.1532,0.1537,0.1538,0.1538,0.1539,0.1539,0.1534,0.1543,0.1543,0.1543,0.1543,0,0.1367,0.1373,0.1393,0.1398,0.1406,0.1421,0.1428,0.1438,0.1451,0.1459,0.1471,0.1478,0.1496,0.1505,0.1516,0.1526,0.1529,0.1535,0.1538,0.1534,0.1533,0.1538,0.1539,0.1543,0.1543,0.1543,0.1543,0,0.1353,0.1367,0.1378,0.1397,0.1402,0.1406,0.1423,0.1429,0.144,0.145,0.1453,0.1471,0.1483,0.1497,0.1514,0.1521,0.1531,0.1535,0.1526,0.1527,0.1528,0.1528,0.1526,0.1527,0.1535,0.1535,0.1535,0,0.1349,0.1354,0.1374,0.138,0.1388,0.1398,0.1406,0.1422,0.1429,0.1446,0.145,0.1464,0.1475,0.1494,0.1508,0.1522,0.1526,0.1525,0.1528,0.1524,0.1527,0.1526,0.1527,0.1524,0.1523,0.1523,0.1523,0,0.134,0.1347,0.1357,0.1371,0.138,0.1391,0.1403,0.1408,0.1426,0.1434,0.1446,0.1455,0.1473,0.1486,0.1502,0.1511,0.152,0.1522,0.1523,0.1519,0.1514,0.1517,0.1523,0.1522,0.1522,0.1522,0.1522,0.1522,0.1331,0.1337,0.1352,0.1363,0.1374,0.1385,0.1392,0.1404,0.1415,0.1431,0.144,0.1452,0.1467,0.1489,0.1498,0.1509,0.1512,0.1514,0.1514,0.1514,0.1513,0.1513,0.1512,0.1512,0.1512,0.1512,0.1512,0,0.1323,0.1334,0.1344,0.1361,0.137,0.1379,0.1393,0.14,0.1411,0.1424,0.1436,0.1451,0.1464,0.148,0.1495,0.15,0.1505,0.1504,0.1503,0.1506,0.1509,0.1507,0.15,0.15,0.15,0.15,0.15,0.15,0.132,0.133,0.1339,0.1355,0.1365,0.1378,0.1385,0.1396,0.1407,0.1424,0.1435,0.1445,0.146,0.1476,0.1489,0.1493,0.1498,0.1495,0.1501,0.1504,0.1505,0.1506,0.1504,0.1496,0.1496,0.1496,0.1496,0.1496]}]]